This demonstration page uses our WeatherBlox Daily Observations layout. Learn more.

Left ArrowRight Arrow

Hourly Observations for February 18, 2018

Temp ( °F °C ) Dew Point ( °F °C ) Humidity (%) Winds ( mph kmh ) Pressure ( in mb ) Visibility ( mi km ) Precip ( " mm )
12:15 am 00:15 Cloudy with Mist and Fog 32 0 32 0 100 100 Calm 30.06 1018 3 4.82802 0 0
12:35 am 00:35 Cloudy with Mist and Fog 32 0 32 0 100 100 Calm 30.06 1018 2.5 4.02335 0 0
12:55 am 00:55 Cloudy with Mist and Fog 32 0 32 0 100 100 WNW 3 6 30.09 1019 1.5 2.41401 0 0
1:15 am 01:15 Cloudy with Light Snow 32 0 32 0 100 100 Calm 30.09 1019 1.5 2.41401 0 0
1:35 am 01:35 Cloudy with Mist and Fog 32 0 32 0 100 100 Calm 30.09 1019 2.5 4.02335 0 0
1:55 am 01:55 Cloudy with Mist and Fog 32 0 32 0 100 100 S 5 7 30.09 1019 3 4.82802 0 0
2:15 am 02:15 Cloudy with Mist and Fog 32 0 32 0 100 100 Calm 30.09 1019 3 4.82802 0 0
2:35 am 02:35 Cloudy with Mist and Fog 32 0 32 0 100 100 SW 5 7 30.09 1019 5 8.0467 0 0
2:55 am 02:55 Partly Cloudy with Mist and Fog 32 0 32 0 100 100 W 3 6 30.12 1020 5 8.0467 0 0
3:15 am 03:15 Clear with Mist and Fog 32 0 32 0 100 100 SW 3 6 30.12 1020 4 6.43736 0 0
3:35 am 03:35 Partly Cloudy with Mist and Fog 32 0 32 0 100 100 SW 3 6 30.12 1020 4 6.43736 0 0
3:55 am 03:55 Cloudy with Mist and Fog 32 0 32 0 100 100 W 3 6 30.15 1021 3 4.82802 0 0
4:15 am 04:15 Mostly Cloudy with Mist and Fog 30 -1 30 -1 100 100 WSW 5 7 30.15 1021 5 8.0467 0 0
4:35 am 04:35 Partly Cloudy 30 -1 30 -1 100 100 Calm 30.15 1021 7 11.26538 0 0
4:55 am 04:55 Clear with Mist and Fog 32 0 32 0 100 100 E 3 6 30.18 1022 5 8.0467 0 0
5:15 am 05:15 Partly Cloudy with Mist and Fog 30 -1 30 -1 100 100 E 6 9 30.18 1022 5 8.0467 0 0
5:35 am 05:35 Mostly Cloudy 32 0 32 0 100 100 E 5 7 30.21 1023 7 11.26538 0 0
5:55 am 05:55 Mostly Cloudy with Mist and Fog 30 -1 30 -1 100 100 Calm 30.21 1023 5 8.0467 0 0
6:15 am 06:15 Mostly Cloudy 30 -1 30 -1 100 100 ENE 3 6 30.24 1024 7 11.26538 0 0
6:35 am 06:35 Mostly Cloudy with Mist and Fog 30 -1 30 -1 100 100 SSE 8 13 30.24 1024 5 8.0467 0 0
6:55 am 06:55 Mostly Cloudy with Mist and Fog 32 0 32 0 100 100 W 3 6 30.27 1025 5 8.0467 0 0
7:15 am 07:15 Partly Cloudy 32 0 32 0 100 100 WNW 7 11 30.3 1026 10 16.0934 0 0
7:35 am 07:35 Mostly Cloudy 32 0 32 0 100 100 Calm 30.3 1026 10 16.0934 0 0
7:55 am 07:55 Cloudy 32 0 32 0 100 100 Calm 30.3 1026 7 11.26538 0 0
8:15 am 08:15 Cloudy 32 0 32 0 100 100 Calm 30.33 1027 10 16.0934 0 0
8:35 am 08:35 Cloudy 32 0 32 0 100 100 ESE 5 7 30.36 1028 10 16.0934 0 0
8:55 am 08:55 Cloudy 32 0 32 0 100 100 NW 6 9 30.36 1028 10 16.0934 0 0
9:15 am 09:15 Cloudy 32 0 32 0 100 100 SSE 5 7 30.39 1029 10 16.0934 0 0
9:35 am 09:35 Cloudy 34 1 34 1 100 100 Calm 30.39 1029 10 16.0934 0 0
9:55 am 09:55 Cloudy 36 2 36 2 100 100 Calm 30.39 1029 10 16.0934 0 0
10:15 am 10:15 Cloudy 36 2 36 2 100 100 Calm 30.42 1030 10 16.0934 0 0
10:35 am 10:35 Cloudy 36 2 36 2 100 100 SW 3 6 30.42 1030 10 16.0934 0 0
10:55 am 10:55 Cloudy 37 3 36 2 93 93 SSW 3 6 30.42 1030 10 16.0934 0 0
11:15 am 11:15 Mostly Cloudy 37 3 36 2 93 93 W 3 6 30.45 1031 10 16.0934 0 0
11:35 am 11:35 Mostly Cloudy 41 5 32 0 70 70 WNW 13 20 30.45 1031 10 16.0934 0 0
11:55 am 11:55 Partly Cloudy 41 5 32 0 70 70 NW 9 15 30.45 1031 10 16.0934 0 0
12:15 pm 12:15 Partly Cloudy 43 6 32 0 66 66 NNW 9 15 30.45 1031 10 16.0934 0 0
12:35 pm 12:35 Partly Cloudy 43 6 32 0 66 66 WNW 8 13 30.45 1031 10 16.0934 0 0
12:55 pm 12:55 Mostly Cloudy 45 7 30 -1 57 57 W 9 15 30.45 1031 10 16.0934 0 0
1:15 pm 13:15 Mostly Cloudy 45 7 32 0 61 61 NW 6 9 30.45 1031 10 16.0934 0 0
1:35 pm 13:35 Partly Cloudy 45 7 32 0 61 61 W 3 6 30.45 1031 10 16.0934 0 0
1:55 pm 13:55 Sunny 45 7 32 0 61 61 WNW 6 9 30.42 1030 10 16.0934 0 0
2:15 pm 14:15 Sunny 46 8 32 0 57 57 NW 5 7 30.42 1030 10 16.0934 0 0
2:35 pm 14:35 Sunny 46 8 32 0 57 57 Calm 30.42 1030 10 16.0934 0 0
2:55 pm 14:55 Sunny 48 9 32 0 54 54 WNW 3 6 30.42 1030 10 16.0934 0 0
3:15 pm 15:15 Sunny 48 9 32 0 54 54 W 7 11 30.45 1031 10 16.0934 0 0
3:35 pm 15:35 Sunny 48 9 32 0 54 54 NW 6 9 30.45 1031 10 16.0934 0 0
3:55 pm 15:55 Sunny 48 9 32 0 54 54 W 5 7 30.45 1031 10 16.0934 0 0
4:15 pm 16:15 Sunny 48 9 30 -1 50 50 Calm 30.45 1031 10 16.0934 0 0
4:35 pm 16:35 Sunny 48 9 32 0 54 54 Calm 30.45 1031 10 16.0934 0 0
4:55 pm 16:55 Sunny 48 9 32 0 54 54 Calm 30.45 1031 10 16.0934 0 0
5:15 pm 17:15 Sunny 48 9 32 0 54 54 Calm 30.45 1031 10 16.0934 0 0
5:35 pm 17:35 Sunny 46 8 30 -1 53 53 Calm 30.45 1031 10 16.0934 0 0
5:55 pm 17:55 Clear 46 8 32 0 57 57 E 3 6 30.45 1031 10 16.0934 0 0
6:15 pm 18:15 Clear 45 7 32 0 61 61 E 3 6 30.45 1031 10 16.0934 0 0
6:35 pm 18:35 Clear 45 7 32 0 61 61 E 3 6 30.45 1031 10 16.0934 0 0
6:55 pm 18:55 Clear 43 6 32 0 66 66 SE 5 7 30.48 1032 10 16.0934 0 0
7:15 pm 19:15 Clear 43 6 32 0 66 66 E 5 7 30.45 1031 10 16.0934 0 0
7:35 pm 19:35 Clear 43 6 32 0 66 66 SE 6 9 30.45 1031 10 16.0934 0 0
7:55 pm 19:55 Clear 43 6 32 0 66 66 ESE 6 9 30.45 1031 10 16.0934 0 0
8:15 pm 20:15 Clear 43 6 32 0 66 66 ESE 3 6 30.45 1031 10 16.0934 0 0
8:35 pm 20:35 Clear 43 6 32 0 66 66 ESE 3 6 30.48 1032 10 16.0934 0 0
8:55 pm 20:55 Clear 37 3 34 1 87 87 SE 5 7 30.48 1032 10 16.0934 0 0
9:15 pm 21:15 Clear 37 3 32 0 81 81 SE 5 7 30.48 1032 10 16.0934 0 0
9:35 pm 21:35 Clear 39 4 32 0 75 75 SE 6 9 30.5 1033 10 16.0934 0 0
9:55 pm 21:55 Clear 41 5 32 0 70 70 SE 6 9 30.5 1033 10 16.0934 0 0
10:15 pm 22:15 Clear 41 5 32 0 70 70 SSE 8 13 30.5 1033 10 16.0934 0 0
10:35 pm 22:35 Partly Cloudy 41 5 32 0 70 70 SSE 7 11 30.5 1033 10 16.0934 0 0
10:55 pm 22:55 Cloudy 41 5 34 1 76 76 SSE 8 13 30.5 1033 10 16.0934 0 0
11:15 pm 23:15 Cloudy 41 5 34 1 76 76 SSE 7 11 30.5 1033 10 16.0934 0 0
11:35 pm 23:35 Partly Cloudy 41 5 34 1 76 76 SSE 7 11 30.5 1033 10 16.0934 0 0
11:55 pm 23:55 Mostly Cloudy 39 4 34 1 81 81 S 9 15 30.5 1033 10 16.0934 0 0

Powered by AerisWeather